Temperature
21 21 21 21 21 21 23 24 24 24 25 24 24 24 23 22 21 19 18 18 18 18 18 18 18 18 18 18 18 17 17 17 17 17 17 17 17 17 17 17 17 17 17 17 17 17 17 17 17
21 21 21 21 21 22 23 23 24 24 24 24 24 24 23 21 20 19 18 18 18 17 17 18 18 18 17 17 17 17 17 17 17 17 17 17 17 17 17 17 17 17 17 17 17 17 17 17 17
21 21 21 22 23 23 23 23 24 24 24 24 24 23 22 20 19 18 18 18 18 17 17 17 17 17 17 17 17 17 17 17 17 17 17 17 17 17 17 17 17 17 17 17 17 17 17 17 17
21 22 23 22 23 23 24 24 24 24 24 24 24 22 20 20 19 18 18 18 18 17 17 17 17 17 17 17 17 17 17 17 17 17 17 17 17 17 17 17 17 17 17 17 17 17 17 17 17
22 22 22 23 23 24 24 25 24 24 24 24 23 22 20 19 19 18 18 18 18 17 17 17 17 17 17 17 17 17 17 17 17 17 17 17 17 17 17 17 17 17 17 17 17 17 17 17 17
22 23 22 22 23 24 24 24 24 24 24 23 23 22 19 19 19 18 18 18 18 17 17 17 17 17 17 17 17 17 17 17 17 17 17 17 17 17 17 17 17 17 17 17 17 17 17 17 17
23 22 23 23 23 23 24 24 24 24 23 23 23 22 20 19 18 18 18 18 18 17 17 17 17 17 17 17 17 17 17 17 17 17 17 17 17 17 17 17 17 17 16 17 17 17 17 16 16
23 23 23 23 23 23 24 24 24 23 23 23 22 21 19 19 18 18 18 18 18 18 17 17 17 17 17 17 17 17 17 17 17 17 17 17 16 16 16 16 16 16 16 16 16 16 16 16 16
23 22 22 23 23 23 24 24 23 23 23 22 22 21 20 19 19 18 18 18 18 18 17 17 17 17 17 17 17 17 17 17 17 17 17 16 16 16 16 16 16 16 16 16 16 16 16 16 16
24 22 23 24 24 24 24 24 24 23 23 22 21 20 19 19 19 19 18 18 18 18 18 17 17 17 17 17 17 17 17 17 17 17 16 16 16 16 16 16 16 16 16 16 16 16 16 16 16
24 23 23 24 24 24 24 24 23 23 22 22 21 20 19 19 19 19 19 19 18 18 18 17 17 17 17 17 17 17 17 17 17 16 16 16 16 16 16 16 16 16 16 16 16 16 16 16 16
24 24 24 24 24 24 24 23 23 23 22 22 21 20 20 19 19 19 19 19 18 18 18 17 17 17 17 17 17 17 17 17 17 16 16 16 16 16 16 16 16 16 16 16 16 16 16 16 16
24 24 24 24 23 23 23 23 23 22 22 22 21 20 20 19 19 19 19 19 18 18 18 18 18 17 17 17 17 17 16 17 16 16 16 16 16 16 16 16 16 16 16 16 16 16 15 16 15
24 24 24 24 24 24 23 23 23 22 22 22 21 20 20 19 19 19 19 19 18 18 18 18 18 17 17 17 17 17 16 16 16 16 16 16 16 16 16 16 16 16 15 15 15 15 15 15 15
24 24 24 24 24 24 23 23 23 22 22 22 21 20 20 20 19 19 19 19 19 18 18 18 18 18 17 17 17 17 17 16 16 16 16 16 16 16 16 16 15 15 15 15 15 15 15 15 15
25 24 23 24 24 24 23 22 23 22 22 22 21 21 20 20 19 19 19 19 19 18 18 18 18 17 17 17 17 17 17 16 16 16 16 16 16 16 16 16 15 15 15 15 15 15 15 15 15
24 23 23 24 24 25 24 22 23 22 22 22 21 21 20 20 19 19 19 19 18 18 18 18 17 17 17 17 17 17 16 16 16 16 16 16 16 16 16 15 15 15 15 15 15 15 15 15 15
23 24 24 24 24 24 23 23 23 23 23 22 22 21 21 20 19 19 19 19 18 18 18 18 17 17 17 17 17 16 16 16 16 16 16 16 16 16 15 15 15 15 15 15 14 14 14 14 15
25 24 24 24 25 24 23 23 23 23 23 22 22 22 21 20 20 19 19 19 18 18 18 18 17 17 17 17 16 16 16 16 16 16 16 16 15 15 15 15 15 15 15 14 14 14 14 14 14
25 24 24 24 25 25 24 23 24 23 23 23 22 22 21 21 20 19 19 18 18 18 18 18 17 17 17 17 16 16 16 16 16 16 16 16 15 15 15 15 15 15 14 14 14 14 14 14 14
25 24 24 24 24 25 24 22 23 23 23 23 22 22 22 21 20 20 19 18 18 18 18 18 17 17 17 17 16 16 16 16 16 16 15 15 15 15 15 15 15 14 14 14 14 14 14 14 14
24 25 25 24 23 23 24 21 23 23 23 23 22 22 21 21 20 20 19 18 18 18 18 18 17 17 17 17 16 16 16 16 16 15 15 15 15 15 15 15 15 14 14 14 14 14 14 14 14
25 25 25 24 23 23 24 23 23 23 23 23 22 22 21 21 20 20 19 18 18 18 18 17 17 17 17 16 16 16 16 16 16 15 15 15 15 15 15 15 14 14 14 14 14 14 14 14 14
25 25 25 24 23 22 24 23 22 23 24 23 23 22 22 21 20 20 19 18 18 18 17 17 17 17 17 16 16 16 16 16 15 15 15 15 15 15 15 15 14 14 14 14 14 14 14 14 13
25 23 22 22 21 22 25 24 23 24 25 24 23 23 22 21 20 20 19 18 18 17 17 17 17 17 16 16 16 16 15 15 15 15 15 15 15 15 15 14 14 14 14 14 14 14 14 13 13
24 24 22 21 22 23 24 24 23 25 25 24 24 23 22 21 20 20 19 18 18 17 17 16 16 16 16 16 16 16 15 15 15 15 15 15 15 14 14 14 14 14 14 14 14 14 13 13 13
24 23 24 23 23 23 23 23 24 25 24 24 23 23 22 21 20 19 19 18 18 17 17 16 16 16 16 16 16 16 15 15 15 15 15 14 14 14 14 14 14 14 14 14 14 14 13 13 13
25 24 23 22 22 22 23 23 22 23 23 23 23 23 22 21 20 19 19 18 18 17 16 16 16 16 15 15 15 15 15 15 15 14 14 14 14 14 14 14 14 14 14 14 13 13 13 13 13
24 24 24 23 23 22 21 22 24 23 24 23 23 23 22 21 20 19 19 18 17 17 16 16 16 16 15 15 15 15 15 15 14 14 14 14 14 14 14 14 13 13 13 13 13 13 13 13 13
25 24 23 22 22 22 22 22 24 24 24 23 23 22 21 20 20 19 19 18 17 17 16 16 16 16 15 15 15 15 15 14 14 14 14 14 14 13 13 13 13 13 13 13 13 13 13 13 13
Wind_Speed
6 8 6 2 2 1 2 5 7 6 6 7 8 7 10 11 7 6 3 5 6 8 10 9 9 9 9 9 9 9 9 9 9 9 10 10 10 10 10 10 11 11 11 10 11 11 11 11 10
7 6 3 2 2 0 4 5 8 7 6 5 7 9 10 10 9 7 3 4 6 9 10 10 9 9 9 9 9 9 9 10 10 10 10 10 10 10 11 10 11 11 11 11 11 11 11 11 11
8 6 3 2 1 3 5 6 7 8 7 5 6 9 7 6 7 4 4 4 7 9 12 11 10 9 9 9 9 9 10 10 10 10 10 10 10 10 10 10 11 11 11 11 11 11 11 11 10
5 3 3 1 3 6 6 6 6 6 6 6 6 7 7 7 5 6 6 6 8 9 12 11 10 10 10 10 10 10 10 10 10 10 9 10 10 10 10 10 10 11 11 11 11 11 11 10 10
3 2 1 1 3 5 6 7 6 6 5 6 8 8 8 7 8 8 6 6 8 8 11 11 11 11 11 11 11 10 10 10 10 10 10 10 10 10 10 10 10 10 10 10 10 10 10 10 10
2 2 1 1 4 5 6 5 5 6 6 6 7 8 7 6 7 6 6 5 8 8 10 11 11 12 11 11 11 10 10 9 9 9 9 9 9 10 10 10 10 10 10 11 11 10 10 10 9
2 2 1 2 3 4 5 5 6 5 6 6 4 6 7 7 6 5 6 6 7 7 8 9 10 11 11 11 10 10 9 9 8 8 8 8 8 9 9 9 9 10 10 10 10 10 10 9 9
2 1 1 1 2 3 4 5 5 5 6 5 4 5 6 7 6 5 6 6 5 5 6 7 9 10 10 10 10 9 8 8 7 7 6 6 7 7 8 8 9 9 9 9 9 8 8 8 7
2 1 1 1 2 4 4 4 4 5 6 6 7 8 10 10 8 6 5 5 4 5 5 5 5 7 8 9 9 8 7 7 6 5 4 3 4 6 7 8 8 9 9 8 7 6 6 5 4
1 1 2 2 3 4 4 4 4 3 5 6 8 10 11 9 8 7 5 5 5 5 5 5 5 5 5 6 7 5 6 6 4 4 4 3 4 7 8 9 7 7 6 6 4 3 2 1 2
1 1 2 3 5 4 4 3 3 2 3 4 7 9 9 7 6 5 5 6 6 5 5 5 5 5 5 4 5 4 4 4 4 6 5 4 5 5 5 6 5 4 4 2 2 1 2 4 5
1 2 2 2 3 3 2 3 3 3 4 5 7 9 8 6 6 4 4 6 6 5 4 4 4 5 5 5 4 3 2 3 4 5 6 5 3 3 4 3 3 3 4 3 3 3 6 6 7
2 2 2 2 2 1 2 3 2 3 4 5 8 9 8 6 5 4 5 6 6 5 4 4 3 5 5 5 2 3 3 4 5 4 4 5 3 2 3 3 3 5 5 4 3 4 5 5 6
2 3 3 3 2 2 2 1 1 2 4 6 7 8 7 6 5 5 5 5 5 4 4 4 3 5 5 4 2 3 4 3 4 3 4 5 4 3 3 3 3 4 4 4 3 4 4 4 4
4 3 3 3 4 3 2 2 3 5 6 6 7 7 7 7 5 4 5 5 4 4 4 4 3 4 4 5 4 4 3 4 3 3 4 5 5 4 4 3 3 3 5 5 5 4 4 3 4
6 5 4 5 6 5 4 3 3 6 7 7 7 7 6 6 5 4 5 5 4 4 4 5 4 4 5 5 3 3 3 3 3 3 3 3 5 6 5 3 2 4 5 4 2 2 3 3 3
7 7 6 5 6 5 5 3 5 7 7 8 8 8 7 7 6 5 5 5 4 5 5 5 4 4 5 4 3 3 3 2 3 3 3 4 5 7 5 3 3 5 3 2 3 3 3 3 2
5 5 4 4 6 6 5 4 5 7 7 7 7 8 8 8 7 6 5 5 4 3 5 5 5 4 4 3 2 2 2 2 3 3 3 4 4 6 5 2 3 3 2 2 2 2 2 2 1
5 5 4 3 3 5 6 6 6 7 7 7 7 8 8 8 8 7 6 5 5 4 4 5 5 4 3 2 2 2 1 1 2 2 3 2 2 4 4 2 3 2 2 1 2 2 2 1 1
6 6 5 3 2 4 5 6 6 8 8 7 7 8 8 8 8 8 6 5 4 5 4 5 4 4 3 3 2 2 2 1 2 1 2 2 2 3 3 2 2 2 1 1 1 1 1 1 0
6 6 6 4 4 6 5 5 6 7 8 7 7 6 7 8 8 8 7 6 5 4 4 4 4 4 4 4 2 2 2 1 1 2 1 1 2 2 2 2 2 2 1 1 1 1 1 0 1
6 6 5 5 6 5 6 4 5 8 9 9 8 8 7 6 7 7 7 6 5 4 4 4 4 4 4 4 3 3 2 2 2 2 2 2 2 2 1 2 2 2 2 2 2 2 1 1 1
5 5 6 8 8 8 8 6 4 8 8 10 10 9 9 8 8 8 8 7 6 5 3 3 4 3 3 3 3 2 1 1 1 2 3 2 2 2 2 2 2 2 2 2 2 1 1 1 1
6 7 8 8 6 7 9 7 3 5 6 8 9 9 9 9 8 7 8 7 6 6 4 3 3 3 3 3 3 2 1 1 2 1 1 1 1 1 1 1 1 1 1 2 2 2 2 1 1
7 5 4 4 5 5 5 3 2 3 3 5 8 9 9 9 9 8 8 7 6 6 5 4 3 3 3 3 3 3 2 2 2 2 2 2 1 1 2 1 2 2 2 2 1 1 2 2 2
7 7 5 4 4 3 3 2 3 5 5 5 5 7 7 8 8 8 8 7 7 7 6 6 5 4 3 3 3 3 3 2 1 1 1 2 2 2 2 2 2 1 1 2 2 2 2 2 3
6 6 6 7 10 7 2 1 4 6 6 5 5 6 6 7 7 7 7 7 7 7 7 6 5 4 4 3 3 3 3 3 2 1 1 1 2 2 3 3 3 2 1 2 2 2 2 2 2
7 6 5 5 5 5 3 2 2 5 6 6 5 5 5 5 6 7 7 7 6 6 6 6 5 5 4 4 3 2 3 3 2 2 1 1 1 1 2 2 2 2 2 2 1 2 2 2 2
7 7 5 5 5 4 3 1 2 4 3 3 3 3 6 6 6 6 7 7 6 6 6 6 5 5 4 4 4 3 3 2 2 2 1 1 1 1 2 2 2 2 2 3 2 2 3 3 3
7 7 6 4 5 5 4 1 2 3 4 4 3 4 4 3 3 5 7 7 6 6 6 6 5 5 4 4 3 3 3 2 2 2 2 2 2 1 1 1 1 2 2 2 2 2 2 2 3
Wind_Direction
235 231 232 255 261 227 58 58 65 59 50 50 49 54 62 53 48 82 115 79 91 100 101 91 79 73 75 78 80 78 74 71 72 75 77 76 75 73 73 75 73 70 67 66 66 64 62 61 59
254 239 250 249 251 110 67 68 70 62 62 58 56 55 67 65 70 91 92 80 96 98 96 89 85 78 78 83 85 82 77 74 75 74 75 77 78 74 72 74 72 70 67 66 66 65 61 60 59
258 256 252 248 331 58 72 67 78 71 56 53 67 58 53 61 66 86 101 102 91 91 92 92 89 83 81 86 88 84 81 79 80 76 75 77 77 76 73 71 70 69 67 67 68 66 63 61 58
252 249 245 252 60 60 72 86 89 81 62 53 70 76 72 56 70 96 106 101 95 96 99 100 96 91 89 88 88 85 84 83 83 79 76 75 75 76 74 71 71 70 68 70 69 68 65 64 60
249 255 239 147 80 73 67 72 78 74 61 60 71 86 86 67 80 94 95 93 102 101 104 107 104 100 95 92 87 84 83 80 79 78 76 76 76 77 75 73 73 72 71 71 69 70 67 63 58
264 256 228 103 82 73 68 67 74 79 75 70 83 95 98 93 82 90 98 98 101 109 109 110 110 105 99 94 88 86 86 84 82 81 79 79 80 82 79 75 76 74 73 72 69 70 69 65 59
269 288 276 102 94 79 78 64 59 72 65 53 53 94 109 100 86 86 89 87 94 105 115 121 124 118 109 101 95 93 92 91 90 90 90 89 88 87 83 78 77 77 76 75 72 71 71 68 60
271 279 302 63 90 78 83 80 68 63 65 56 44 92 117 120 118 103 92 89 91 100 109 123 133 132 129 121 112 110 106 105 103 101 102 104 103 100 93 85 82 81 80 80 79 77 73 67 56
258 249 330 54 75 96 105 90 78 80 83 74 64 76 110 124 127 114 107 103 99 96 103 106 109 112 124 129 126 133 130 131 129 130 133 130 124 118 104 94 93 93 92 91 90 86 79 74 58
180 75 38 49 86 100 98 85 94 97 94 91 88 95 111 129 131 132 136 128 118 111 114 109 107 104 105 104 120 135 126 135 141 114 112 106 92 94 105 109 107 110 110 104 95 87 73 73 84
133 111 61 52 71 82 102 85 81 85 82 100 118 122 124 132 129 133 132 122 113 111 107 116 115 112 104 90 101 91 95 107 96 90 89 83 87 98 105 117 130 140 138 120 91 81 72 67 67
139 85 86 81 75 83 104 91 69 56 68 86 115 122 131 137 130 123 114 111 112 114 110 109 115 116 113 104 98 106 91 75 73 69 78 72 64 65 64 74 76 95 90 76 66 63 58 56 61
159 138 113 96 100 100 103 107 95 81 100 107 116 126 135 138 133 129 119 114 118 119 121 117 119 114 105 99 102 99 79 63 68 49 64 80 73 67 67 74 57 60 64 67 51 57 56 51 52
138 136 150 165 168 165 150 147 147 144 138 131 130 134 138 139 145 145 134 128 124 130 127 115 113 105 106 116 118 92 85 92 81 52 41 69 78 75 69 58 56 53 47 48 57 58 54 55 55
166 179 198 205 203 192 198 227 196 168 153 147 150 149 148 151 159 158 139 132 135 129 125 125 118 108 104 98 87 88 90 91 85 62 36 58 77 82 79 64 56 56 49 44 54 55 55 54 52
209 211 222 215 205 203 219 241 188 163 162 162 164 161 157 155 164 156 143 136 135 132 130 119 122 107 95 94 96 89 85 78 81 77 42 38 64 79 81 75 63 66 65 52 39 58 55 54 44
227 229 220 206 207 206 217 234 181 175 178 174 174 170 168 164 170 161 146 140 140 142 138 131 124 110 103 98 102 94 93 82 79 78 54 33 53 70 78 71 70 65 66 48 32 48 60 64 59
242 243 238 218 198 208 218 224 190 187 186 184 180 176 178 171 170 160 148 151 144 143 138 135 124 122 118 115 106 90 82 84 78 79 76 50 49 73 82 81 82 72 69 57 47 49 59 75 56
276 278 282 264 180 209 229 225 205 200 194 190 187 185 181 172 165 159 159 157 155 155 145 134 136 149 139 122 118 124 118 106 87 92 90 75 70 91 93 80 77 76 78 67 65 61 50 65 89
265 265 268 265 218 244 248 244 216 201 199 196 194 189 180 170 162 160 164 159 169 155 148 142 151 153 144 137 144 142 123 130 122 92 102 112 90 92 111 119 109 106 107 79 62 70 38 334 358
266 266 261 255 244 252 252 257 223 203 192 192 194 193 180 173 170 164 166 166 167 162 160 162 164 153 150 149 147 127 113 116 144 157 133 118 119 107 105 120 128 142 162 174 168 163 127 281 312
263 275 274 267 258 256 241 263 222 194 193 191 192 190 184 176 168 162 162 164 163 167 162 160 157 151 152 149 146 150 159 183 186 156 152 160 142 125 138 146 160 178 176 179 205 169 174 177 269
279 283 278 268 263 267 255 252 218 180 194 193 190 187 182 181 171 165 165 168 162 157 154 159 151 140 137 140 148 164 170 173 142 133 154 170 162 157 178 184 204 195 187 187 188 177 199 193 193
269 265 263 259 260 262 249 235 219 195 195 183 183 181 179 176 168 164 161 162 160 153 153 157 151 141 138 137 133 153 164 133 129 141 160 172 157 182 198 186 206 202 196 205 197 193 200 207 197
247 256 259 237 223 240 234 218 177 150 153 162 174 176 174 169 170 168 164 165 160 154 155 164 158 153 152 154 160 167 162 170 184 185 188 183 175 195 216 195 215 204 190 195 182 217 213 209 207
238 245 259 282 287 280 217 202 140 130 120 130 150 157 165 171 172 167 164 165 161 164 167 171 167 165 156 163 179 175 162 172 180 196 193 199 195 195 196 202 220 190 177 204 182 222 228 225 219
252 253 268 281 288 287 252 147 139 139 135 137 143 150 162 171 166 164 167 167 166 169 169 172 169 170 172 180 191 175 175 171 179 178 211 216 212 200 190 188 194 177 170 212 195 221 228 233 232
249 265 267 263 291 285 265 226 183 149 152 155 158 159 161 160 164 167 171 166 166 168 168 172 178 182 178 179 189 182 179 168 169 181 216 246 238 194 180 191 189 176 184 202 193 229 242 231 232
226 242 256 270 272 287 299 349 63 127 125 127 122 136 152 162 167 163 158 162 163 162 168 176 181 180 181 187 189 187 177 173 172 177 195 213 225 190 197 202 201 196 199 191 185 225 224 227 224
241 248 257 262 279 282 288 305 82 100 99 102 93 88 101 121 143 153 154 157 162 166 172 177 181 181 181 186 188 189 174 176 190 197 205 207 208 201 218 208 214 223 212 197 178 217 234 230 232
Height
1500 1501 1502 1504 1506 1508 1507 1501 1497 1499 1499 1501 1501 1501 1504 1509 1514 1524 1523 1521 1521 1519 1519 1519 1519 1519 1519 1519 1519 1520 1520 1520 1520 1521 1521 1522 1522 1522 1522 1523 1523 1523 1523 1523 1523 1523 1524 1524 1524
1501 1503 1505 1505 1507 1513 1509 1501 1501 1501 1502 1502 1503 1504 1507 1512 1516 1520 1521 1521 1521 1520 1520 1520 1520 1520 1520 1520 1520 1520 1521 1521 1521 1522 1522 1523 1523 1523 1524 1524 1524 1524 1524 1524 1524 1525 1525 1525 1525
1502 1504 1505 1504 1505 1509 1509 1502 1502 1503 1503 1504 1505 1508 1511 1516 1519 1520 1521 1522 1522 1521 1521 1521 1521 1521 1521 1521 1521 1521 1522 1522 1522 1523 1524 1524 1524 1525 1525 1525 1525 1526 1526 1526 1526 1526 1526 1526 1526
1504 1505 1504 1505 1507 1503 1502 1502 1502 1504 1505 1505 1506 1510 1516 1519 1520 1521 1522 1523 1522 1522 1521 1521 1522 1522 1522 1522 1522 1522 1523 1523 1524 1524 1525 1525 1526 1526 1526 1527 1527 1527 1527 1527 1527 1527 1527 1527 1527
1504 1504 1505 1507 1505 1502 1501 1502 1503 1505 1506 1507 1508 1513 1518 1521 1521 1522 1523 1523 1523 1523 1523 1522 1523 1523 1523 1523 1523 1524 1524 1525 1525 1526 1526 1527 1527 1527 1528 1528 1528 1528 1528 1528 1528 1528 1528 1528 1528
1505 1503 1509 1511 1507 1503 1502 1503 1504 1505 1507 1509 1510 1514 1520 1522 1522 1523 1524 1524 1524 1524 1524 1524 1524 1524 1524 1524 1525 1525 1526 1526 1527 1527 1528 1528 1529 1529 1529 1529 1529 1529 1529 1529 1529 1529 1529 1529 1529
1505 1504 1507 1507 1508 1506 1505 1505 1506 1507 1509 1510 1512 1515 1520 1522 1523 1524 1525 1525 1526 1526 1525 1525 1525 1525 1526 1526 1526 1527 1527 1528 1528 1529 1529 1530 1530 1530 1530 1531 1531 1531 1531 1531 1531 1530 1530 1530 1530
1503 1504 1506 1506 1508 1508 1506 1507 1508 1509 1511 1513 1513 1515 1520 1523 1524 1525 1526 1526 1527 1527 1527 1527 1527 1527 1528 1528 1528 1529 1529 1529 1530 1531 1531 1531 1532 1532 1532 1532 1532 1532 1532 1532 1532 1532 1532 1532 1532
1503 1507 1510 1507 1507 1508 1506 1507 1509 1511 1512 1514 1515 1517 1520 1522 1524 1525 1526 1527 1528 1528 1529 1529 1529 1530 1530 1530 1530 1531 1531 1531 1532 1532 1533 1533 1533 1533 1533 1534 1534 1534 1534 1534 1534 1534 1534 1533 1533
1503 1509 1507 1503 1503 1506 1507 1508 1510 1511 1513 1515 1517 1519 1521 1523 1524 1525 1526 1527 1528 1529 1530 1530 1531 1531 1531 1532 1532 1532 1533 1533 1533 1533 1534 1534 1534 1535 1535 1535 1535 1535 1535 1535 1535 1535 1535 1535 1535
1502 1505 1505 1504 1504 1506 1507 1509 1510 1511 1513 1515 1517 1520 1522 1523 1525 1526 1527 1528 1529 1530 1531 1531 1532 1532 1533 1533 1533 1534 1534 1534 1535 1535 1535 1535 1536 1536 1536 1536 1536 1536 1536 1536 1536 1536 1536 1536 1536
1503 1504 1504 1505 1506 1507 1508 1510 1511 1513 1515 1516 1517 1519 1522 1523 1525 1526 1527 1528 1529 1530 1531 1532 1533 1533 1534 1534 1535 1535 1535 1536 1536 1536 1536 1536 1536 1537 1537 1537 1537 1537 1537 1537 1537 1538 1537 1538 1538
1504 1505 1506 1507 1508 1509 1509 1510 1512 1514 1515 1516 1518 1520 1522 1523 1525 1526 1527 1528 1530 1531 1532 1533 1533 1534 1534 1535 1535 1536 1536 1536 1536 1536 1537 1537 1537 1537 1537 1538 1538 1538 1538 1538 1538 1538 1538 1539 1539
1504 1505 1506 1507 1508 1509 1509 1511 1512 1514 1515 1516 1518 1520 1522 1523 1525 1526 1528 1528 1530 1531 1532 1533 1534 1534 1535 1535 1536 1536 1537 1537 1537 1537 1537 1538 1538 1538 1538 1538 1538 1538 1539 1539 1539 1539 1539 1540 1540
1505 1506 1507 1507 1507 1508 1509 1511 1511 1512 1514 1516 1518 1520 1521 1523 1524 1526 1527 1528 1529 1530 1532 1532 1534 1535 1535 1536 1536 1537 1537 1538 1538 1538 1538 1538 1538 1538 1538 1539 1539 1539 1539 1540 1540 1540 1540 1540 1540
1503 1506 1511 1506 1505 1506 1511 1515 1509 1511 1512 1515 1517 1519 1520 1522 1524 1525 1526 1528 1529 1530 1531 1532 1533 1534 1535 1536 1536 1537 1538 1538 1538 1538 1538 1539 1539 1539 1539 1539 1539 1540 1540 1540 1540 1540 1540 1541 1541
1505 1509 1509 1505 1502 1503 1506 1510 1508 1509 1510 1512 1515 1517 1519 1521 1523 1524 1526 1527 1528 1529 1531 1532 1533 1534 1535 1535 1536 1537 1537 1538 1538 1538 1538 1539 1539 1539 1539 1539 1539 1540 1540 1540 1540 1541 1541 1541 1542
1508 1505 1504 1504 1500 1501 1504 1506 1506 1506 1508 1510 1512 1514 1517 1518 1521 1522 1524 1526 1527 1529 1530 1531 1532 1533 1534 1535 1536 1537 1537 1538 1538 1538 1538 1539 1539 1539 1539 1539 1540 1540 1540 1540 1540 1541 1541 1542 1542
1498 1501 1503 1500 1496 1499 1502 1503 1503 1504 1505 1507 1509 1512 1514 1516 1518 1521 1523 1524 1526 1527 1529 1530 1531 1532 1533 1534 1535 1536 1537 1537 1537 1538 1538 1538 1539 1539 1539 1539 1540 1540 1540 1540 1540 1541 1541 1542 1543
1497 1501 1502 1498 1495 1497 1500 1500 1498 1500 1502 1504 1506 1508 1511 1513 1516 1519 1521 1523 1524 1526 1527 1529 1530 1531 1532 1533 1534 1536 1536 1537 1537 1537 1537 1538 1538 1538 1539 1539 1539 1539 1539 1540 1540 1541 1541 1542 1543
1497 1500 1500 1500 1496 1495 1499 1503 1498 1497 1499 1501 1503 1506 1508 1510 1513 1516 1518 1521 1523 1524 1526 1527 1529 1530 1531 1532 1534 1535 1536 1536 1536 1536 1537 1537 1538 1538 1538 1539 1539 1539 1539 1539 1540 1540 1541 1541 1542
1500 1493 1493 1496 1502 1504 1499 1512 1498 1494 1496 1498 1501 1503 1506 1508 1511 1513 1516 1518 1520 1522 1524 1526 1527 1529 1530 1531 1532 1533 1534 1535 1535 1536 1536 1536 1537 1537 1538 1538 1538 1538 1539 1539 1539 1540 1540 1541 1541
1495 1491 1492 1494 1498 1502 1497 1504 1498 1490 1494 1494 1496 1500 1503 1506 1508 1511 1513 1516 1518 1520 1522 1524 1526 1527 1528 1529 1531 1532 1533 1534 1534 1535 1535 1535 1535 1536 1536 1536 1537 1537 1537 1538 1538 1538 1539 1539 1540
1491 1492 1492 1492 1498 1509 1495 1499 1501 1491 1488 1489 1492 1496 1500 1503 1506 1508 1511 1514 1516 1518 1520 1522 1524 1525 1526 1528 1529 1530 1531 1532 1532 1533 1533 1534 1534 1534 1534 1534 1535 1535 1536 1536 1536 1537 1537 1538 1538
1492 1501 1512 1513 1513 1506 1484 1490 1495 1484 1482 1485 1489 1493 1496 1500 1503 1506 1509 1511 1513 1515 1517 1519 1522 1523 1525 1526 1527 1528 1529 1530 1531 1531 1532 1532 1532 1532 1533 1533 1533 1533 1534 1534 1534 1535 1535 1536 1536
1492 1497 1513 1519 1512 1498 1486 1492 1488 1480 1481 1485 1487 1491 1494 1498 1501 1503 1506 1508 1510 1513 1515 1517 1519 1521 1522 1524 1525 1526 1527 1528 1529 1529 1530 1530 1530 1530 1530 1531 1531 1532 1532 1532 1532 1533 1533 1534 1534
1492 1493 1491 1501 1500 1501 1493 1488 1483 1479 1482 1484 1487 1490 1493 1496 1498 1501 1503 1506 1508 1510 1512 1514 1516 1518 1520 1521 1523 1524 1525 1526 1527 1527 1528 1528 1528 1528 1528 1529 1529 1529 1529 1530 1530 1530 1531 1532 1532
1486 1488 1493 1501 1510 1511 1499 1494 1493 1485 1483 1484 1486 1488 1491 1493 1497 1500 1501 1504 1506 1508 1510 1512 1514 1516 1517 1519 1520 1522 1523 1524 1524 1525 1525 1525 1525 1526 1526 1526 1526 1527 1527 1527 1527 1528 1528 1529 1529
1487 1489 1490 1493 1495 1507 1510 1504 1481 1482 1481 1483 1485 1487 1490 1493 1495 1497 1499 1502 1504 1506 1508 1510 1512 1513 1515 1516 1518 1519 1520 1521 1522 1523 1523 1523 1523 1523 1524 1524 1524 1525 1525 1525 1525 1525 1525 1526 1526
1481 1484 1488 1501 1501 1495 1502 1503 1479 1480 1481 1484 1486 1488 1490 1492 1494 1495 1497 1499 1502 1504 1506 1508 1509 1510 1512 1514 1515 1517 1518 1519 1519 1520 1520 1520 1521 1521 1521 1522 1522 1522 1522 1522 1522 1522 1522 1523 1523